Location: Mexico
(19.4000°N, 99.1500°W)
Time: 06:37:21
(UTC-06:00)

ISS - Pass Details

Date: 22 March 2017
Orbit: 400 x 408 km, 51.6° (Epoch: 25 July)

Event Time Altitude Azimuth Distance (km) Brightness Sun altitude
Rises 04:45:43 0° 28° (NNE) 2,351 0.6 -27.3°
Enters shadow 05:45:36 -69° 299° (WNW) 12,366 3.6 -13.3°
Maximum altitude 06:23:45 35° 49° (NE) 696 -2.0 -4.4°
